1517691600.86,28705,7.56,71558.3,-14.13,-14.75,-14.69,0,*62
1517691602.15,28706,7.56,71558.8,-14.13,-14.75,-14.75,0,*6C
1517691603.42,28707,7.56,71562.3,-14.13,-14.75,-14.89,0,*6E
1517691604.72,28708,7.63,71560.5,-14.13,-14.83,-14.83,0,*62
1517691606.02,28709,7.56,71558.5,-14.13,-14.83,-14.83,0,*63
1517691607.29,28710,7.56,71556.0,-14.11,-14.79,-14.83,0,*6C
1517691608.56,28711,7.56,71558.0,-14.13,-14.83,-14.89,0,*60
1517691609.84,28712,7.56,71562.8,-14.15,-14.83,-14.83,0,*6F
1517691611.11,28713,7.56,71560.0,-14.11,-14.79,-14.83,0,*6F
1517691612.35,28714,7.56,71558.3,-14.15,-14.75,-14.89,0,*6A
1517691613.63,28715,7.56,71562.3,-14.13,-14.83,-14.89,0,*64
1517691614.88,28716,7.56,71558.5,-14.13,-14.89,-14.89,0,*6D
1517691616.14,28717,7.56,71564.0,-14.11,-14.79,-14.83,0,*6B
1517691617.44,28718,7.56,71562.5,-14.13,-14.75,-14.83,0,*6A
1517691618.73,28719,7.56,71562.0,-14.13,-14.75,-14.75,0,*62
1517691620.02,28720,7.56,71560.0,-14.13,-14.75,-14.75,0,*68
1517691621.28,28721,7.56,71556.3,-14.15,-14.75,-14.75,0,*6F
1517691622.49,28722,7.56,71558.8,-14.11,-14.69,-14.69,0,*68
1517691623.72,28723,7.56,71558.3,-14.11,-14.69,-14.79,0,*68
1517691625.02,28724,7.56,71562.8,-14.13,-14.83,-14.83,0,*6C
1517691626.29,28725,7.56,71562.0,-14.11,-14.79,-14.83,0,*6A
1517691627.53,28726,7.56,71566.3,-14.11,-14.69,-14.83,0,*68
1517691628.8,28727,7.56,71564.0,-14.11,-14.83,-14.79,0,*68
1517691630.08,28728,7.56,71562.8,-14.13,-14.83,-14.89,0,*6A
1517691631.38,28729,7.56,71562.3,-14.13,-14.83,-14.83,0,*61
1517691632.68,28730,7.56,71558.3,-14.13,-14.83,-14.83,0,*69
1517691633.94,28731,7.56,71556.0,-14.11,-14.79,-14.79,0,*6A
1517691635.22,28732,7.56,71564.3,-14.11,-14.83,-14.79,0,*6C
1517691636.51,28733,7.56,71566.3,-14.13,-14.75,-14.83,0,*63
1517691637.78,28734,7.56,71564.0,-14.13,-14.75,-14.89,0,*6E
1517691639.08,28735,7.56,71562.3,-14.13,-14.83,-14.83,0,*6C
1517691640.36,28736,7.56,71560.3,-14.13,-14.97,-14.75,0,*63
1517691641.64,28737,7.63,71570.0,-14.15,-14.83,-14.83,0,*68
1517691642.88,28738,7.63,71564.5,-14.11,-14.69,-14.79,0,*62
1517691644.11,28739,7.63,71562.3,-14.15,-14.69,-14.75,0,*6B
1517691645.41,28740,7.56,71564.3,-14.13,-14.75,-14.83,0,*67
1517691646.64,28741,7.56,71562.8,-14.11,-14.69,-14.83,0,*69
1517691647.94,28742,7.56,71566.3,-14.13,-14.83,-14.75,0,*65
1517691649.2,28743,7.63,71566.8,-14.13,-14.89,-14.75,0,*6E
1517691650.48,28744,7.56,71566.5,-14.13,-14.83,-14.69,0,*6E
1517691651.78,28745,7.63,71564.8,-14.13,-14.83,-14.83,0,*6B
1517691652.98,28746,7.63,71566.3,-14.11,-14.65,-14.69,0,*66
1517691654.28,28747,7.56,71564.0,-14.13,-14.75,-14.83,0,*60
1517691655.51,28748,7.56,71564.5,-14.11,-14.69,-14.79,0,*65
1517691656.72,28749,7.63,71564.3,-14.11,-14.69,-14.69,0,*65
1517691658.01,28750,7.56,71566.3,-14.13,-14.75,-14.75,0,*6F
1517691659.28,28751,7.56,71568.8,-14.11,-14.79,-14.79,0,*6C
1517691660.51,28752,7.56,71564.3,-14.11,-14.69,-14.79,0,*6E
1517691661.77,28753,7.56,71562.5,-14.09,-14.79,-14.69,0,*66
1517691663.05,28754,7.56,71568.8,-14.11,-14.83,-14.79,0,*6C
1517691664.31,28755,7.56,71566.8,-14.11,-14.79,-14.83,0,*6D
1517691665.58,28756,7.56,71566.5,-14.11,-14.79,-14.79,0,*6B
1517691666.85,28757,7.56,71560.5,-14.11,-14.79,-14.83,0,*6F
1517691668.09,28758,7.56,71560.5,-14.11,-14.83,-14.69,0,*61
1517691669.32,28759,7.56,71564.0,-14.11,-14.69,-14.79,0,*65
1517691670.56,28760,7.56,71564.5,-14.11,-14.69,-14.83,0,*6A
1517691671.83,28761,7.56,71564.3,-14.11,-14.79,-14.79,0,*6F
1517691673.09,28762,7.56,71562.8,-14.09,-14.69,-14.79,0,*64
1517691674.38,28763,7.56,71564.3,-14.09,-14.79,-14.79,0,*64
1517691675.65,28764,7.56,71564.0,-14.11,-14.79,-14.83,0,*6F
1517691676.92,28765,7.63,71566.3,-14.11,-14.79,-14.79,0,*6B
1517691678.19,28766,7.56,71566.3,-14.11,-14.83,-14.83,0,*68
1517691679.46,28767,7.56,71562.3,-14.11,-14.79,-14.79,0,*69
1517691680.73,28768,7.56,71564.5,-14.13,-14.89,-14.83,0,*6E
1517691681.97,28769,7.56,71562.5,-14.13,-14.89,-14.89,0,*65
1517691683.24,28770,7.56,71566.3,-14.13,-14.75,-14.89,0,*6E
1517691684.52,28771,7.56,71566.0,-14.13,-14.83,-14.89,0,*66
1517691685.79,28772,7.56,71562.3,-14.13,-14.89,-14.83,0,*65
1517691687.06,28773,7.56,71562.0,-14.11,-14.83,-14.83,0,*6C
1517691688.33,28774,7.63,71564.3,-14.13,-14.97,-14.89,0,*66
1517691689.6,28775,7.63,71564.8,-14.13,-14.83,-14.89,0,*62
1517691690.85,28776,7.56,71566.3,-14.11,-14.89,-14.83,0,*63
1517691692.15,28777,7.56,71562.5,-14.09,-14.83,-14.83,0,*61
1517691693.44,28778,7.56,71560.0,-14.09,-14.79,-14.83,0,*6B
1517691694.71,28779,7.63,71564.8,-14.11,-14.83,-14.83,0,*66
1517691696.02,28780,7.63,71564.5,-14.09,-14.83,-14.83,0,*69
1517691697.29,28781,7.56,71562.8,-14.13,-14.83,-14.89,0,*69
1517691698.59,28782,7.56,71560.5,-14.09,-14.83,-14.79,0,*6E
1517691699.87,28783,7.56,71562.5,-14.11,-14.83,-14.83,0,*63
1517691701.11,28784,7.56,71562.3,-14.13,-14.89,-14.89,0,*66
1517691702.41,28785,7.56,71564.3,-14.13,-14.83,-14.83,0,*67
1517691703.68,28786,7.56,71564.3,-14.11,-14.79,-14.83,0,*63
1517691704.95,28787,7.56,71560.3,-14.11,-14.79,-14.83,0,*62
1517691706.16,28788,7.56,71562.5,-14.11,-14.69,-14.65,0,*64
1517691707.42,28789,7.56,71566.0,-14.11,-14.79,-14.83,0,*6C
1517691708.7,28790,7.63,71568.3,-14.11,-14.83,-14.79,0,*64
1517691709.96,28791,7.63,71560.8,-14.11,-14.79,-14.83,0,*65
1517691711.24,28792,7.63,71564.8,-14.11,-14.83,-14.93,0,*62
1517691712.54,28793,7.56,71562.0,-14.13,-14.83,-14.97,0,*65
1517691713.83,28794,7.56,71566.5,-14.13,-14.97,-14.97,0,*67
1517691715.07,28795,7.56,71562.8,-14.13,-14.89,-14.89,0,*66
1517691716.32,28796,7.56,71560.8,-14.13,-14.89,-14.89,0,*65
1517691717.59,28797,7.56,71566.8,-14.13,-14.89,-14.97,0,*6B
1517691718.84,28798,7.56,71562.0,-14.13,-14.89,-14.89,0,*6B
1517691720.11,28799,7.56,71562.3,-14.13,-14.83,-14.89,0,*60
1517691721.39,28800,7.56,71564.3,-14.11,-14.83,-14.83,0,*67
1517691722.63,28801,7.63,71564.5,-14.13,-14.89,-14.89,0,*64
1517691723.88,28802,7.56,71560.3,-14.13,-14.89,-14.89,0,*67
1517691725.13,28803,7.63,71564.5,-14.13,-14.89,-14.89,0,*66
1517691726.4,28804,7.56,71564.8,-14.13,-14.89,-14.97,0,*6E
1517691727.67,28805,7.56,71566.8,-14.13,-14.89,-14.97,0,*6F
1517691728.94,28806,7.56,71564.3,-14.13,-14.89,-14.97,0,*6C
1517691730.21,28807,7.56,71564.0,-14.15,-14.97,-14.97,0,*64
1517691731.48,28808,7.56,71564.3,-14.13,-14.89,-14.97,0,*62
1517691732.7,28809,7.56,71562.5,-14.15,-14.89,-14.89,0,*6A
1517691733.97,28810,7.56,71564.3,-14.13,-14.89,-14.97,0,*6B
1517691735.24,28811,7.56,71562.5,-14.13,-14.89,-15.01,0,*64
1517691736.49,28812,7.56,71556.5,-14.13,-14.89,-14.89,0,*66
1517691737.76,28813,7.56,71566.5,-14.11,-14.83,-14.97,0,*60
1517691739.01,28814,7.56,71566.8,-14.13,-14.89,-14.89,0,*60
1517691740.25,28815,7.56,71564.8,-14.13,-14.89,-14.89,0,*61
1517691741.5,28816,7.63,71568.5,-14.13,-14.89,-14.89,0,*62
1517691742.78,28817,7.56,71566.0,-14.13,-14.83,-14.89,0,*69
1517691744.07,28818,7.56,71562.0,-14.13,-14.97,-14.97,0,*6C
1517691745.33,28819,7.56,71560.5,-14.11,-14.93,-14.93,0,*6F
1517691746.57,28820,7.56,71558.8,-14.15,-14.89,-14.97,0,*6E
1517691747.8,28821,7.56,71560.5,-14.15,-14.89,-14.89,0,*60
1517691749.07,28822,7.56,71564.3,-14.13,-14.83,-14.89,0,*6F
1517691750.32,28823,7.56,71562.8,-14.13,-14.89,-14.89,0,*64
1517691751.57,28824,7.63,71564.3,-14.13,-14.89,-14.89,0,*63
1517691752.84,28825,7.63,71566.0,-14.13,-14.83,-14.89,0,*68
1517691754.09,28826,7.56,71564.8,-14.13,-14.89,-14.89,0,*61
1517691755.37,28827,7.56,71570.5,-14.13,-14.83,-14.89,0,*6A
1517691756.61,28828,7.56,71566.8,-14.15,-14.89,-14.97,0,*66
1517691757.88,28829,7.56,71564.8,-14.13,-14.97,-14.89,0,*61
1517691759.15,28830,7.56,71566.0,-14.11,-14.83,-14.83,0,*64
1517691760.42,28831,7.56,71562.3,-14.13,-14.89,-14.97,0,*68
1517691761.69,28832,7.56,71566.5,-14.13,-15.01,-14.89,0,*65
1517691762.96,28833,7.56,71566.5,-14.13,-14.83,-14.89,0,*6F
1517691764.23,28834,7.56,71564.0,-14.13,-14.97,-14.89,0,*6D
1517691765.51,28835,7.56,71564.3,-14.15,-14.83,-14.83,0,*65
1517691766.76,28836,7.56,71564.0,-14.15,-14.83,-14.89,0,*6C
1517691768.02,28837,7.56,71564.5,-14.13,-14.97,-14.89,0,*6E
1517691769.32,28838,7.56,71566.3,-14.13,-14.83,-14.83,0,*6E
1517691770.6,28839,7.56,71564.3,-14.13,-14.83,-14.89,0,*65
1517691771.87,28840,7.56,71564.8,-14.11,-14.79,-14.83,0,*66
1517691773.12,28841,7.56,71566.8,-14.15,-14.89,-14.97,0,*69
1517691774.36,28842,7.56,71564.0,-14.13,-14.89,-14.89,0,*63
1517691775.61,28843,7.56,71564.3,-14.13,-14.89,-14.89,0,*62
1517691776.85,28844,7.56,71568.3,-14.13,-14.89,-14.89,0,*65
1517691778.1,28845,7.56,71564.0,-14.13,-14.89,-14.89,0,*64
1517691779.37,28846,7.63,71566.5,-14.11,-14.83,-14.79,0,*60
1517691780.65,28847,7.56,71564.8,-14.13,-14.83,-14.89,0,*6C
1517691781.9,28848,7.56,71566.3,-14.13,-14.89,-14.89,0,*69
1517691783.2,28849,7.56,71566.3,-14.13,-14.83,-14.83,0,*68
1517691784.47,28850,7.56,71562.0,-14.13,-14.89,-14.97,0,*6F
1517691785.77,28851,7.56,71566.3,-14.13,-14.83,-14.97,0,*64
1517691787.04,28852,7.56,71564.3,-14.11,-14.83,-14.79,0,*65
1517691788.27,28853,7.56,71560.8,-14.15,-14.89,-14.89,0,*65
1517691789.51,28854,7.56,71564.8,-14.13,-14.89,-14.89,0,*64
1517691790.79,28855,7.56,71566.5,-14.15,-14.83,-14.83,0,*63
1517691792.07,28856,7.56,71562.8,-14.13,-14.83,-14.89,0,*6C
1517691793.34,28857,7.56,71568.3,-14.13,-14.83,-14.89,0,*6D
1517691794.64,28858,7.56,71568.5,-14.13,-14.83,-14.83,0,*68
1517691795.92,28859,7.56,71572.5,-14.11,-14.83,-14.79,0,*6E
1517691797.16,28860,7.56,71574.3,-14.13,-14.89,-14.89,0,*63
1517691798.41,28861,7.56,71576.3,-14.13,-14.89,-14.89,0,*62
1517691799.71,28862,7.56,71568.0,-14.13,-14.83,-14.75,0,*68
1517691800.98,28863,7.56,71560.0,-14.15,-14.83,-14.83,0,*66
1517691802.28,28864,7.56,71560.5,-14.13,-14.75,-14.83,0,*6E
1517691803.55,28865,7.56,71560.5,-14.13,-14.89,-14.83,0,*6C
1517691804.82,28866,7.56,71560.0,-14.11,-14.83,-14.79,0,*62
1517691806.09,28867,7.56,71560.5,-14.11,-14.79,-14.83,0,*63
1517691807.36,28868,7.56,71560.8,-14.13,-14.83,-14.89,0,*61
1517691808.61,28869,7.56,71556.5,-14.13,-14.89,-14.89,0,*6A
1517691809.86,28870,7.56,71558.3,-14.15,-14.83,-14.89,0,*6E
1517691811.09,28871,7.56,71562.8,-14.15,-14.89,-14.89,0,*65
1517691812.35,28872,7.56,71566.8,-14.11,-14.93,-14.93,0,*62
1517691813.64,28873,7.56,71558.3,-14.13,-14.97,-14.97,0,*61
1517691814.9,28874,7.56,71566.0,-14.15,-14.97,-14.97,0,*60
1517691816.17,28875,7.56,71562.5,-14.13,-15.01,-14.89,0,*66
1517691817.43,28876,7.56,71562.8,-14.13,-14.97,-14.89,0,*6B
1517691818.7,28877,7.56,71566.5,-14.13,-14.97,-14.89,0,*6A
1517691819.97,28878,7.56,71564.3,-14.13,-14.83,-14.89,0,*60
1517691821.24,28879,7.56,71568.5,-14.13,-14.89,-14.97,0,*64
1517691822.49,28880,7.56,71562.5,-14.13,-14.89,-14.89,0,*6D
1517691823.77,28881,7.56,71564.3,-14.13,-14.83,-14.89,0,*66
1517691825.06,28882,7.56,71566.8,-14.13,-15.01,-14.97,0,*61
1517691826.35,28883,7.56,71566.0,-14.13,-14.97,-14.97,0,*6E
1517691827.62,28884,7.56,71566.3,-14.13,-14.89,-14.97,0,*66
1517691828.86,28885,7.56,71564.8,-14.15,-14.89,-14.97,0,*61
1517691830.11,28886,7.56,71566.0,-14.13,-14.89,-14.89,0,*6B
1517691831.36,28887,7.56,71566.8,-14.15,-14.83,-14.89,0,*66
1517691832.63,28888,7.56,71566.8,-14.15,-14.97,-14.97,0,*63
1517691833.92,28889,7.56,71564.3,-14.13,-14.97,-14.97,0,*64
1517691835.16,28890,7.56,71564.8,-14.15,-14.89,-15.01,0,*6B
1517691836.43,28891,7.56,71566.3,-14.13,-14.89,-14.97,0,*62
1517691837.7,28892,7.56,71570.0,-14.13,-14.97,-14.89,0,*61
1517691838.94,28893,7.56,71566.5,-14.13,-14.89,-14.89,0,*6F
1517691840.17,28894,7.56,71568.0,-14.15,-14.89,-14.89,0,*6E
1517691841.42,28895,7.56,71566.8,-14.15,-14.89,-14.97,0,*60
1517691842.69,28896,7.56,71566.5,-14.13,-14.89,-14.97,0,*65
1517691843.96,28897,7.56,71568.3,-14.15,-14.83,-14.97,0,*68
1517691845.26,28898,7.56,71564.8,-14.13,-14.83,-14.97,0,*61
1517691846.51,28899,7.56,71568.5,-14.13,-14.89,-14.89,0,*65
1517691847.79,28900,7.56,71570.0,-14.13,-14.83,-14.89,0,*6E
1517691849.01,28901,7.56,71566.5,-14.15,-14.89,-14.89,0,*63
1517691850.28,28902,7.56,71566.5,-14.13,-14.89,-14.83,0,*6C
1517691851.58,28903,7.63,71572.8,-14.13,-14.83,-15.01,0,*6C
1517691852.85,28904,7.56,71570.5,-14.13,-14.89,-14.97,0,*6F
1517691854.15,28905,7.56,71572.3,-14.13,-14.83,-14.97,0,*64
1517691855.42,28906,7.56,71570.0,-14.13,-14.89,-14.97,0,*6D
1517691856.64,28907,7.56,71574.3,-14.15,-14.89,-14.89,0,*65
1517691857.88,28908,7.56,71572.5,-14.15,-14.97,-14.89,0,*65
1517691859.16,28909,7.56,71576.0,-14.13,-14.83,-14.89,0,*67
1517691860.39,28910,7.56,71574.0,-14.15,-14.89,-14.89,0,*63
1517691861.64,28911,7.56,71572.5,-14.15,-14.83,-14.89,0,*68
1517691862.88,28912,7.56,71574.8,-14.13,-14.89,-14.89,0,*67
1517691864.16,28913,7.56,71572.8,-14.15,-14.83,-14.83,0,*60
1517691865.38,28914,7.56,71574.5,-14.15,-14.89,-14.89,0,*67
1517691866.65,28915,7.63,71576.8,-14.11,-14.93,-14.83,0,*63
1517691867.91,28916,7.56,71570.5,-14.15,-14.97,-14.83,0,*60
1517691869.18,28917,7.56,71572.0,-14.13,-14.89,-14.83,0,*68
1517691870.43,28918,7.56,71572.5,-14.15,-14.89,-14.83,0,*61
1517691871.67,28919,7.56,71570.0,-14.15,-14.89,-14.83,0,*60
1517691872.93,28920,7.56,71570.8,-14.15,-14.83,-14.89,0,*6A
1517691874.2,28921,7.56,71568.8,-14.13,-14.83,-14.89,0,*6D
1517691875.45,28922,7.56,71570.3,-14.13,-14.89,-14.89,0,*64
1517691876.75,28923,7.56,71570.3,-14.13,-14.83,-14.83,0,*65
1517691878.05,28924,7.56,71572.5,-14.13,-14.75,-14.83,0,*6B
1517691879.32,28925,7.56,71568.3,-14.15,-14.83,-14.83,0,*65
1517691880.62,28926,7.56,71568.5,-14.13,-14.83,-14.75,0,*69
1517691881.89,28927,7.56,71570.3,-14.15,-14.83,-14.75,0,*6E
1517691883.17,28928,7.56,71570.8,-14.13,-14.83,-14.89,0,*64
1517691884.44,28929,7.56,71570.8,-14.13,-14.83,-14.89,0,*65
1517691885.65,28930,7.56,71568.5,-14.11,-14.69,-14.69,0,*65
1517691886.93,28931,7.56,71572.3,-14.15,-14.83,-14.83,0,*60
1517691888.2,28932,7.56,71574.8,-14.15,-14.83,-14.75,0,*6A
1517691889.43,28933,7.56,71570.3,-14.11,-14.79,-14.69,0,*67
1517691890.73,28934,7.56,71568.8,-14.13,-14.83,-14.75,0,*6A
1517691892.03,28935,7.56,71568.3,-14.13,-14.83,-14.83,0,*62
1517691893.3,28936,7.56,71570.3,-14.13,-14.89,-14.83,0,*6B
1517691894.58,28937,7.56,71570.0,-14.13,-14.83,-14.89,0,*6A
1517691895.88,28938,7.56,71568.5,-14.13,-14.83,-14.83,0,*6F
1517691897.15,28939,7.56,71572.8,-14.15,-14.83,-14.75,0,*61
1517691898.42,28940,7.56,71568.5,-14.15,-14.83,-14.75,0,*6F
1517691899.7,28941,7.56,71568.8,-14.15,-14.83,-14.75,0,*6E
1517691900.96,28942,7.56,71568.5,-14.13,-14.69,-14.75,0,*6F
1517691902.26,28943,7.56,71570.8,-14.13,-14.83,-14.83,0,*63
1517691903.56,28944,7.56,71572.0,-14.13,-14.83,-14.83,0,*64
1517691904.83,28945,7.56,71572.3,-14.15,-14.83,-14.83,0,*63
1517691906.13,28946,7.56,71568.0,-14.13,-14.83,-14.83,0,*66
1517691907.4,28947,7.56,71574.3,-14.13,-14.75,-14.89,0,*64
1517691908.69,28948,7.56,71574.3,-14.13,-14.75,-14.75,0,*68
1517691909.96,28949,7.56,71576.0,-14.15,-14.75,-14.75,0,*6F
1517691911.19,28950,7.56,71570.8,-14.11,-14.79,-14.69,0,*62
1517691912.43,28951,7.56,71572.3,-14.13,-14.69,-14.69,0,*60
1517691913.69,28952,7.56,71570.3,-14.11,-14.75,-14.83,0,*68
1517691914.93,28953,7.56,71570.0,-14.11,-14.69,-14.79,0,*61
1517691916.21,28954,7.56,71572.3,-14.15,-14.83,-14.83,0,*63
1517691917.51,28955,7.63,71578.0,-14.13,-14.83,-14.83,0,*64
1517691918.8,28956,7.56,71574.8,-14.13,-14.75,-14.75,0,*67
1517691920.07,28957,7.56,71578.5,-14.11,-14.83,-14.79,0,*61
1517691921.33,28958,7.56,71574.5,-14.13,-14.69,-14.75,0,*64
1517691922.59,28959,7.56,71570.8,-14.13,-14.69,-14.75,0,*65
1517691923.8,28960,7.56,71564.0,-14.11,-14.65,-14.65,0,*60
1517691925.04,28961,7.56,71560.8,-14.13,-14.69,-14.69,0,*63
1517691926.27,28962,7.56,71558.0,-14.13,-14.69,-14.69,0,*60
1517691927.48,28963,7.56,71568.3,-14.11,-14.65,-14.69,0,*6F
1517691928.69,28964,7.56,71566.5,-14.11,-14.69,-14.65,0,*68
1517691929.92,28965,7.56,71564.0,-14.13,-14.69,-14.69,0,*67
1517691931.21,28966,7.56,71564.5,-14.13,-14.75,-14.75,0,*64
1517691932.45,28967,7.56,71564.5,-14.13,-14.69,-14.65,0,*69
1517691933.69,28968,7.56,71564.5,-14.11,-14.75,-14.65,0,*69
1517691934.91,28969,7.56,71566.0,-14.11,-14.65,-14.65,0,*69
1517691936.17,28970,7.56,71566.8,-14.13,-14.61,-14.75,0,*66
1517691937.39,28971,7.56,71566.5,-14.11,-14.69,-14.65,0,*6C
1517691938.62,28972,7.56,71564.3,-14.15,-14.69,-14.75,0,*6A
1517691939.83,28973,7.56,71574.3,-14.15,-14.69,-14.69,0,*66
1517691941.03,28974,7.56,71572.5,-14.11,-14.69,-14.69,0,*65
1517691942.24,28975,7.56,71576.5,-14.11,-14.69,-14.69,0,*64
1517691943.45,28976,7.56,71574.3,-14.11,-14.65,-14.69,0,*6B
1517691944.69,28977,7.56,71570.8,-14.15,-14.75,-14.69,0,*6F
1517691945.98,28978,7.56,71572.3,-14.13,-14.75,-14.75,0,*6B
1517691947.27,28979,7.56,71574.3,-14.13,-14.75,-14.83,0,*63
1517691948.54,28980,7.56,71572.8,-14.13,-14.69,-14.83,0,*68
1517691949.74,28981,7.56,71574.3,-14.11,-14.69,-14.69,0,*6F
1517691951.0,28982,7.56,71574.5,-14.13,-14.75,-14.69,0,*63
1517691952.22,28983,7.56,71570.3,-14.11,-14.65,-14.65,0,*6D
1517691953.48,28984,7.56,71568.5,-14.13,-14.75,-14.69,0,*65
1517691954.75,28985,7.56,71568.8,-14.13,-14.75,-14.69,0,*64
1517691956.01,28986,7.56,71564.5,-14.11,-14.75,-14.75,0,*68
1517691957.22,28987,7.56,71566.3,-14.11,-14.65,-14.69,0,*65
1517691958.45,28988,7.56,71568.0,-14.11,-14.79,-14.69,0,*67
1517691959.72,28989,7.56,71568.5,-14.13,-14.89,-14.83,0,*6F
1517691960.99,28990,7.56,71570.0,-14.13,-14.75,-14.69,0,*60
1517691962.28,28991,7.56,71566.0,-14.13,-14.83,-14.75,0,*65
1517691963.53,28992,7.56,71566.0,-14.15,-14.89,-14.83,0,*63
1517691964.81,28993,7.56,71568.5,-14.15,-14.83,-14.83,0,*68
1517691966.1,28994,7.56,71568.3,-14.13,-14.83,-14.75,0,*60
1517691967.4,28995,7.56,71574.8,-14.13,-14.83,-14.83,0,*68
1517691968.68,28996,7.56,71570.3,-14.13,-14.89,-14.83,0,*61
1517691969.98,28997,7.56,71564.0,-14.13,-14.83,-14.83,0,*6A
1517691971.24,28998,7.56,71566.5,-14.11,-14.79,-14.79,0,*67
1517691972.51,28999,7.56,71570.5,-14.11,-14.83,-14.83,0,*66
1517691973.79,29000,7.63,71574.3,-14.11,-14.83,-14.79,0,*6B
1517691975.06,29001,7.56,71574.8,-14.13,-14.83,-14.89,0,*67
1517691976.36,29002,7.56,71574.0,-14.13,-14.83,-14.83,0,*6E
1517691977.64,29003,7.56,71570.8,-14.11,-14.83,-14.79,0,*68
1517691978.91,29004,7.56,71570.3,-14.11,-14.83,-14.79,0,*6F
1517691980.18,29005,7.56,71574.3,-14.11,-14.79,-14.79,0,*6B
1517691981.44,29006,7.56,71574.0,-14.11,-14.79,-14.79,0,*68
1517691982.65,29007,7.56,71572.8,-14.11,-14.69,-14.69,0,*69
1517691983.92,29008,7.56,71572.3,-14.15,-14.83,-14.75,0,*6B
1517691985.21,29009,7.56,71568.5,-14.13,-14.75,-14.75,0,*65
1517691986.51,29010,7.56,71570.5,-14.13,-14.83,-14.83,0,*6D
1517691987.75,29011,7.56,71568.5,-14.11,-14.79,-14.69,0,*6F
1517691988.98,29012,7.56,71568.8,-14.11,-14.79,-14.69,0,*6C
1517691990.22,29013,7.56,71574.0,-14.11,-14.79,-14.69,0,*6D
1517691991.46,29014,7.56,71572.8,-14.11,-14.79,-14.69,0,*6A
1517691992.76,29015,7.56,71572.3,-14.13,-14.83,-14.83,0,*68
1517691994.06,29016,7.56,71570.8,-14.13,-14.83,-14.83,0,*6B
1517691995.27,29017,7.56,71570.0,-14.11,-14.65,-14.65,0,*68
1517691996.57,29018,7.56,71566.0,-14.13,-14.83,-14.83,0,*65
1517691997.85,29019,7.56,71568.0,-14.11,-14.83,-14.79,0,*63
1517691999.15,29020,7.56,71568.0,-14.13,-14.83,-14.83,0,*6E
1517692000.44,29021,7.56,71570.5,-14.13,-14.75,-14.83,0,*66
1517692001.73,29022,7.56,71572.8,-14.13,-14.75,-14.83,0,*65
1517692003.03,29023,7.56,71572.5,-14.13,-14.83,-14.75,0,*64
1517692004.27,29024,7.56,71568.3,-14.11,-14.69,-14.79,0,*69
1517692005.56,29025,7.56,71570.8,-14.13,-14.75,-14.75,0,*6B
1517692006.85,29026,7.56,71568.8,-14.13,-14.75,-14.75,0,*68
1517692008.14,29027,7.56,71572.5,-14.13,-14.75,-14.75,0,*69
1517692009.37,29028,7.56,71572.8,-14.11,-14.79,-14.69,0,*65
1517692010.61,29029,7.56,71574.3,-14.11,-14.69,-14.79,0,*64
1517692011.84,29030,7.56,71574.8,-14.11,-14.69,-14.79,0,*6C
1517692013.11,29031,7.56,71572.0,-14.13,-14.75,-14.69,0,*63
1517692014.37,29032,7.56,71570.8,-14.13,-14.75,-14.69,0,*60
1517692015.6,29033,7.56,71570.3,-14.11,-14.69,-14.79,0,*6F
1517692016.82,29034,7.56,71568.8,-14.11,-14.69,-14.65,0,*65
1517692018.05,29035,7.56,71568.3,-14.09,-14.69,-14.69,0,*61
1517692019.25,29036,7.56,71570.3,-14.11,-14.69,-14.69,0,*6B
1517692020.49,29037,7.56,71568.0,-14.11,-14.69,-14.79,0,*6B
1517692021.73,29038,7.56,71568.0,-14.11,-14.65,-14.79,0,*68
1517692022.96,29039,7.56,71568.0,-14.11,-14.69,-14.79,0,*65
1517692024.23,29040,7.56,71572.0,-14.09,-14.79,-14.65,0,*6E
1517692025.5,29041,7.56,71572.0,-14.11,-14.83,-14.79,0,*6E
1517692026.75,29042,7.56,71570.3,-14.13,-14.89,-14.89,0,*6A
1517692028.05,29043,7.56,71572.5,-14.13,-14.83,-14.83,0,*6B
1517692029.32,29044,7.56,71568.0,-14.11,-14.79,-14.83,0,*6B
1517692030.55,29045,7.56,71574.0,-14.11,-14.69,-14.79,0,*6E
1517692031.76,29046,7.56,71572.5,-14.11,-14.69,-14.69,0,*6C
1517692033.0,29047,7.56,71570.5,-14.11,-14.79,-14.69,0,*6C
1517692034.2,29048,7.56,71568.8,-14.11,-14.69,-14.69,0,*62
1517692035.41,29049,7.56,71570.3,-14.11,-14.69,-14.65,0,*6F
1517692036.65,29050,7.56,71572.3,-14.11,-14.65,-14.79,0,*66
1517692037.89,29051,7.56,71572.0,-14.11,-14.69,-14.79,0,*6B
1517692039.18,29052,7.56,71570.0,-14.13,-14.75,-14.83,0,*62
1517692040.45,29053,7.56,71574.0,-14.11,-14.79,-14.79,0,*68
1517692041.75,29054,7.56,71570.5,-14.13,-14.83,-14.83,0,*6D
1517692043.05,29055,7.56,71570.0,-14.13,-14.83,-14.75,0,*65
1517692044.29,29056,7.56,71570.5,-14.13,-14.89,-14.89,0,*6F
1517692045.59,29057,7.56,71568.8,-14.13,-14.83,-14.83,0,*6E
1517692046.89,29058,7.56,71570.0,-14.13,-14.75,-14.83,0,*68
1517692048.13,29059,7.56,71572.8,-14.11,-14.79,-14.65,0,*6F
1517692049.37,29060,7.56,71578.3,-14.11,-14.79,-14.69,0,*69
1517692050.6,29061,7.56,71570.3,-14.11,-14.69,-14.79,0,*68
1517692051.84,29062,7.56,71568.5,-14.11,-14.79,-14.65,0,*67
1517692053.11,29063,7.56,71574.0,-14.11,-14.79,-14.79,0,*6B
1517692054.38,29064,7.56,71572.8,-14.11,-14.79,-14.79,0,*6C
1517692055.58,29065,7.56,71568.8,-14.11,-14.69,-14.69,0,*6D
1517692056.86,29066,7.56,71578.5,-14.11,-14.83,-14.79,0,*6B
1517692058.09,29067,7.56,71572.0,-14.11,-14.69,-14.79,0,*6E
1517692059.33,29068,7.56,71574.8,-14.11,-14.69,-14.79,0,*61
1517692060.56,29069,7.56,71570.0,-14.11,-14.79,-14.69,0,*60
1517692061.8,29070,7.56,71570.5,-14.11,-14.69,-14.79,0,*68
1517692063.06,29071,7.56,71570.5,-14.09,-14.69,-14.79,0,*60
1517692064.3,29072,7.56,71574.3,-14.11,-14.79,-14.69,0,*6A
1517692065.56,29073,7.56,71574.3,-14.11,-14.79,-14.79,0,*6A
1517692066.84,29074,7.56,71574.3,-14.11,-14.83,-14.79,0,*68
1517692068.04,29075,7.56,71574.8,-14.11,-14.69,-14.69,0,*6C
1517692069.28,29076,7.56,71578.0,-14.11,-14.79,-14.69,0,*6E
1517692070.55,29077,7.56,71574.0,-14.11,-14.83,-14.79,0,*6B
1517692071.82,29078,7.56,71574.8,-14.11,-14.79,-14.79,0,*61
1517692073.02,29079,7.56,71570.8,-14.11,-14.69,-14.69,0,*60
1517692074.26,29080,7.56,71572.0,-14.11,-14.79,-14.69,0,*67
1517692075.49,29081,7.56,71572.8,-14.11,-14.79,-14.69,0,*66
1517692076.76,29082,7.56,71568.8,-14.11,-14.79,-14.79,0,*64
1517692078.05,29083,7.56,71572.0,-14.09,-14.79,-14.79,0,*6C
1517692079.33,29084,7.56,71574.3,-14.11,-14.83,-14.79,0,*67
1517692080.59,29085,7.56,71572.8,-14.11,-14.79,-14.79,0,*63
1517692081.83,29086,7.56,71572.0,-14.11,-14.69,-14.79,0,*61
1517692083.09,29087,7.56,71574.0,-14.11,-14.79,-14.79,0,*61
1517692084.36,29088,7.56,71574.0,-14.11,-14.79,-14.79,0,*6E
1517692085.63,29089,7.56,71572.5,-14.11,-14.79,-14.79,0,*6F
1517692086.86,29090,7.56,71572.0,-14.11,-14.69,-14.79,0,*66
1517692088.13,29091,7.56,71570.8,-14.11,-14.79,-14.83,0,*63
1517692089.39,29092,7.56,71574.5,-14.09,-14.79,-14.69,0,*6D
1517692090.66,29093,7.56,71572.8,-14.11,-14.83,-14.79,0,*61
1517692091.93,29094,7.56,71574.0,-14.09,-14.69,-14.83,0,*6E
1517692093.19,29095,7.56,71572.3,-14.11,-14.79,-14.79,0,*62
1517692094.46,29096,7.56,71578.5,-14.09,-14.69,-14.83,0,*6C
1517692095.72,29097,7.56,71572.5,-14.09,-14.69,-14.79,0,*68
1517692096.93,29098,7.56,71576.3,-14.11,-14.65,-14.69,0,*63
1517692098.13,29099,7.56,71576.0,-14.11,-14.69,-14.69,0,*6E
1517692099.37,29100,7.56,71568.5,-14.09,-14.69,-14.69,0,*66
1517692100.66,29101,7.56,71572.0,-14.09,-14.79,-14.79,0,*67
1517692101.87,29102,7.56,71572.8,-14.11,-14.65,-14.69,0,*61
1517692103.1,29103,7.56,71572.3,-14.11,-14.69,-14.79,0,*6D
1517692104.37,29104,7.56,71572.8,-14.09,-14.69,-14.83,0,*66